| time (UTC) | temp F | wind direction | speed MPH | gust MPH | rain 1hr in | rain 24hr in | rain mn in | humidity % | barometer mb |
| 20260505210050 | 77 | 5 | 2.0 | 8.0 | 0.00 | 0.00 | 0.00 | 31 | 1011.1 |
| 20260505204553 | 76 | 29 | 2.0 | 14.0 | 0.00 | 0.00 | 0.00 | 34 | 1011.2 |
| 20260505203044 | 76 | 5 | 3.0 | 13.0 | 0.00 | 0.00 | 0.00 | 38 | 1011.3 |
| 20260505201534 | 75 | 315 | 5.0 | 14.0 | 0.00 | 0.00 | 0.00 | 39 | 1011.4 |
| 20260505200036 | 74 | 343 | 1.0 | 13.0 | 0.00 | 0.00 | 0.00 | 41 | 1011.5 |
| 20260505194533 | 74 | 306 | 6.0 | 12.0 | 0.00 | 0.00 | 0.00 | 41 | 1011.7 |
| 20260505193033 | 73 | 280 | 0.0 | 12.0 | 0.00 | 0.00 | 0.00 | 43 | 1011.9 |
| 20260505191532 | 72 | 305 | 4.0 | 9.0 | 0.00 | 0.00 | 0.00 | 44 | 1012.0 |
| 20260505190031 | 71 | 337 | 2.0 | 10.0 | 0.00 | 0.00 | 0.00 | 45 | 1012.1 |
| 20260505184531 | 70 | 286 | 5.0 | 9.0 | 0.00 | 0.00 | 0.00 | 47 | 1012.2 |
| 20260505183018 | 70 | 110 | 1.0 | 9.0 | 0.00 | 0.00 | 0.00 | 47 | 1012.2 |
| 20260505181517 | 69 | 304 | 3.0 | 9.0 | 0.00 | 0.00 | 0.00 | 47 | 1012.2 |
| 20260505180017 | 68 | 276 | 3.0 | 10.0 | 0.00 | 0.00 | 0.00 | 47 | 1012.0 |
| 20260505174517 | 67 | 326 | 2.0 | 8.0 | 0.00 | 0.00 | 0.00 | 48 | 1012.2 |
| 20260505173034 | 67 | 44 | 0.0 | 5.0 | 0.00 | 0.00 | 0.00 | 52 | 1012.2 |
| 20260505171516 | 66 | 53 | 2.0 | 8.0 | 0.00 | 0.00 | 0.00 | 54 | 1012.2 |
| 20260505170022 | 64 | 5 | 2.0 | 5.0 | 0.00 | 0.00 | 0.00 | 55 | 1012.2 |
| 20260505164532 | 63 | 30 | 3.0 | 5.0 | 0.00 | 0.00 | 0.00 | 59 | 1012.2 |
| 20260505163111 | 60 | 349 | 1.0 | 4.0 | 0.00 | 0.00 | 0.00 | 61 | 1012.3 |
| 20260505161510 | 58 | 301 | 1.0 | 4.0 | 0.00 | 0.00 | 0.00 | 62 | 1012.3 |
| 20260505153051 | 54 | 94 | 0.0 | 0.0 | 0.00 | 0.00 | 0.00 | 64 | 1012.5 |
| 20260505151545 | 53 | 94 | 0.0 | 2.0 | 0.00 | 0.00 | 0.00 | 65 | 1012.3 |
| 20260505124520 | 48 | 128 | 4.0 | 8.0 | 0.00 | 0.00 | 0.00 | 70 | 1011.3 |
| 20260505123013 | 49 | 140 | 2.0 | 4.0 | 0.00 | 0.00 | 0.00 | 66 | 1011.3 |
| 20260505121511 | 50 | 142 | 4.0 | 9.0 | 0.00 | 0.00 | 0.00 | 65 | 1011.3 |
| 20260505120009 | 50 | 123 | 0.0 | 6.0 | 0.00 | 0.00 | 0.00 | 64 | 1011.1 |
| 20260505114508 | 50 | 137 | 1.0 | 5.0 | 0.00 | 0.00 | 0.00 | 64 | 1011.1 |
| 20260505113100 | 50 | 125 | 2.0 | 8.0 | 0.00 | 0.00 | 0.00 | 65 | 1010.9 |
| 20260505111557 | 50 | 132 | 1.0 | 7.0 | 0.00 | 0.00 | 0.00 | 64 | 1010.9 |
| 20260505101542 | 51 | 136 | 0.0 | 6.0 | 0.00 | 0.00 | 0.00 | 60 | 1010.5 |
| 20260505100048 | 51 | 173 | 2.0 | 6.0 | 0.00 | 0.00 | 0.00 | 59 | 1010.5 |
| 20260505094536 | 52 | 150 | 2.0 | 5.0 | 0.00 | 0.00 | 0.00 | 58 | 1010.5 |
| 20260505093023 | 52 | 149 | 0.0 | 5.0 | 0.00 | 0.00 | 0.00 | 56 | 1010.5 |
| 20260505091520 | 53 | 136 | 5.0 | 10.0 | 0.00 | 0.00 | 0.00 | 55 | 1010.5 |
| 20260505090024 | 54 | 126 | 2.0 | 11.0 | 0.00 | 0.00 | 0.00 | 53 | 1010.4 |
| 20260505084514 | 54 | 167 | 5.0 | 9.0 | 0.00 | 0.00 | 0.00 | 53 | 1010.4 |
| 20260505083011 | 54 | 155 | 4.0 | 8.0 | 0.00 | 0.00 | 0.00 | 54 | 1010.4 |
| 20260505081510 | 54 | 128 | 0.0 | 2.0 | 0.00 | 0.00 | 0.00 | 53 | 1010.3 |
| 20260505080007 | 56 | 155 | 3.0 | 7.0 | 0.00 | 0.00 | 0.00 | 50 | 1010.3 |
| 20260505074505 | 56 | 163 | 3.0 | 6.0 | 0.00 | 0.00 | 0.00 | 51 | 1010.2 |
| 20260505073109 | 54 | 161 | 1.0 | 3.0 | 0.00 | 0.00 | 0.00 | 54 | 1010.2 |
| 20260505071548 | 56 | 216 | 0.0 | 1.0 | 0.00 | 0.00 | 0.00 | 53 | 1010.1 |
| 20260505070046 | 59 | 216 | 0.0 | 2.0 | 0.00 | 0.00 | 0.00 | 47 | 1010.0 |
| 20260505064541 | 60 | 210 | 3.0 | 6.0 | 0.00 | 0.00 | 0.00 | 50 | 1009.9 |
| 20260505063041 | 61 | 225 | 3.0 | 7.0 | 0.00 | 0.00 | 0.00 | 47 | 1009.7 |
| 20260505061546 | 61 | 221 | 3.0 | 6.0 | 0.00 | 0.00 | 0.00 | 44 | 1009.7 |
| 20260505060031 | 62 | 143 | 0.0 | 3.0 | 0.00 | 0.00 | 0.00 | 43 | 1009.5 |
| 20260505054529 | 63 | 175 | 0.0 | 4.0 | 0.00 | 0.00 | 0.00 | 42 | 1009.6 |
| 20260505053025 | 63 | 113 | 0.0 | 3.0 | 0.00 | 0.00 | 0.00 | 40 | 1009.6 |
| 20260505051607 | 63 | 114 | 0.0 | 4.0 | 0.00 | 0.00 | 0.00 | 37 | 1009.4 |
| 20260505041538 | 67 | 257 | 2.0 | 9.0 | 0.00 | 0.00 | 0.00 | 29 | 1008.8 |
| 20260505040038 | 68 | 264 | 0.0 | 7.0 | 0.00 | 0.00 | 0.00 | 30 | 1008.7 |
| 20260505034532 | 69 | 246 | 2.0 | 8.0 | 0.00 | 0.00 | 0.00 | 30 | 1008.5 |
| 20260505033035 | 70 | 261 | 2.0 | 12.0 | 0.00 | 0.00 | 0.00 | 29 | 1008.1 |
| 20260505031523 | 71 | 253 | 5.0 | 17.0 | 0.00 | 0.00 | 0.00 | 27 | 1007.9 |
| 20260505030020 | 72 | 296 | 8.0 | 18.0 | 0.00 | 0.00 | 0.00 | 26 | 1007.6 |
| 20260505024610 | 73 | 277 | 11.0 | 18.0 | 0.00 | 0.00 | 0.00 | 25 | 1007.4 |
| 20260505023054 | 76 | 292 | 7.0 | 11.0 | 0.00 | 0.00 | 0.00 | 24 | 1007.3 |
| 20260505021554 | 76 | 321 | 8.0 | 16.0 | 0.00 | 0.00 | 0.00 | 23 | 1007.1 |
| 20260505020044 | 77 | 324 | 6.0 | 14.0 | 0.00 | 0.00 | 0.00 | 24 | 1007.0 |
| 20260505014533 | 78 | 326 | 9.0 | 13.0 | 0.00 | 0.00 | 0.00 | 23 | 1007.1 |
| 20260505013032 | 78 | 309 | 5.0 | 10.0 | 0.00 | 0.00 | 0.00 | 23 | 1007.1 |
| 20260505011532 | 78 | 327 | 8.0 | 11.0 | 0.00 | 0.00 | 0.00 | 23 | 1007.2 |
| 20260505010025 | 79 | 323 | 7.0 | 14.0 | 0.00 | 0.00 | 0.00 | 24 | 1007.3 |
| 20260505004535 | 79 | 342 | 6.0 | 13.0 | 0.00 | 0.00 | 0.00 | 23 | 1007.5 |
| 20260505003021 | 79 | 340 | 10.0 | 17.0 | 0.00 | 0.00 | 0.00 | 23 | 1007.4 |
| 20260505001507 | 79 | 336 | 13.0 | 20.0 | 0.00 | 0.00 | 0.00 | 23 | 1007.5 |
| 20260505000007 | 80 | 360 | 7.0 | 13.0 | 0.00 | 0.00 | 0.00 | 23 | 1007.3 |
| 20260504234505 | 80 | 9 | 9.0 | 16.0 | 0.00 | 0.00 | 0.00 | 23 | 1007.5 |
| 20260504233003 | 80 | 355 | 8.0 | 14.0 | 0.00 | 0.00 | 0.00 | 24 | 1007.5 |
| 20260504231501 | 80 | 303 | 9.0 | 16.0 | 0.00 | 0.00 | 0.00 | 21 | 1007.8 |
| 20260504230104 | 80 | 277 | 3.0 | 9.0 | 0.00 | 0.00 | 0.00 | 21 | 1007.7 |
| 20260504224558 | 80 | 325 | 7.0 | 21.0 | 0.00 | 0.00 | 0.00 | 22 | 1008.0 |
| 20260504223103 | 79 | 326 | 3.0 | 15.0 | 0.00 | 0.00 | 0.00 | 22 | 1008.0 |
| 20260504221547 | 79 | 296 | 7.0 | 17.0 | 0.00 | 0.00 | 0.00 | 19 | 1008.2 |
| 20260504220101 | 80 | 20 | 6.0 | 15.0 | 0.00 | 0.00 | 0.00 | 21 | 1008.3 |
| 20260504214542 | 79 | 306 | 10.0 | 18.0 | 0.00 | 0.00 | 0.00 | 20 | 1008.4 |
| 20260504213038 | 80 | 360 | 4.0 | 18.0 | 0.00 | 0.00 | 0.00 | 19 | 1008.6 |
| 20260504211537 | 80 | 16 | 9.0 | 17.0 | 0.00 | 0.00 | 0.00 | 19 | 1008.6 |